Location: Pardubice
(50.0333°N, 15.7833°E)
Time: 17:06:49
(UTC+01:00)

ISS - Visible Passes

Search period start: 10 December 2018 00:00
Search period end: 20 December 2018 00:00
Orbit: 401 x 408 km, 51.6° (Epoch: 10 December)

Date Brightness Start Highest point End Pass type
(mag) Time Alt. Az. Time Alt. Az. Time Alt. Az.
10 Dec -2.8 17:30:30 10° WNW 17:33:38 45° SSW 17:36:18 13° SE visible
11 Dec -3.5 16:38:16 10° WNW 16:41:32 67° SSW 16:44:46 10° ESE visible
11 Dec -1.0 18:15:26 10° W 18:17:34 16° SW 18:19:41 10° S visible
12 Dec -1.6 17:22:49 10° W 17:25:35 25° SW 17:28:20 10° SSE visible
13 Dec -2.3 16:30:26 10° W 16:33:31 39° SSW 16:36:35 10° SE visible
14 Dec -0.6 17:15:36 10° WSW 17:17:20 14° SW 17:19:06 10° S visible
